User: anonymous   Login
Location: Unspecified
(0.0000°N, 0.0000°E)
Time: 00:11:00
(UTC+00:00)
Language:

Skynet 4E - Orbit

View from above orbital plane
View from above orbital plane
View from above satellite
View from above satellite

Ground track
Ground track

The orbit data is extracted from the following two-line orbital elements,

1 25639U 99009B   18112.04618135 -.00000044  00000-0  00000+0 0  9991
2 25639  10.3847  26.2835 0004070  10.4635 188.6727  1.00273267 70156
Epoch (UTC): 22 April 2018 01:06:30
Eccentricity: 0.0004070
inclination: 10.3847°
perigee height: 35768 km
apogee height: 35803 km
right ascension of ascending node: 26.2835°
argument of perigee: 10.4635°
revolutions per day: 1.00273267
mean anomaly at epoch: 188.6727°
orbit number at epoch: 7015

The dashed part of the orbit path shows where the satellite is in the earth's shadow,  

DLR